Location: Siloam Springs
(36.1880°N, 94.5400°W)
Time: 19:56:22
(UTC-05:00)

ISS - Visible Passes

Search period start: 20 October 2017 00:00
Search period end: 30 October 2017 00:00
Orbit: 401 x 408 km, 51.6° (Epoch: 21 October)

Date Brightness Start Highest point End Pass type
(mag) Time Alt. Az. Time Alt. Az. Time Alt. Az.
27 Oct -1.5 07:02:08 10° S 07:04:55 27° SE 07:07:43 10° ENE visible
28 Oct -0.7 06:11:05 10° SSE 06:12:42 13° SE 06:14:18 10° E visible
29 Oct -3.7 06:53:10 10° SW 06:56:24 78° SE 06:59:39 10° NE visible
